[[{"header":{"parameterUnit":"m.s-1","parameterCategory":1,"la1":30.2991,"la2":30.254,"lo1":-89.0895,"lo2":-89.0444,"dy":0.0017,"dx":0.0017,"nx":28,"ny":28,"refTime":"2023-10-08T09:00:00:Z","depth":0,"parameterNumber":2,"parameterNumberName":"U-component_of_WINDS"},"data":[0,0,0,0,0,0,0,0,0,0,0,0,0,0,0,0,0,0,0,0,0,0,0,0,0,0,0,0,0,0,0,0,0,0,0,0,0,0,0,0,0,0,0,0,0,0,0,0,0,0,0,0,0,0,0,0,0,0,-0.2227,-0.2228,0,-0.2324,-0.2325,-0.2326,-0.2399,-0.2399,-0.24,-0.2401,-0.25,-0.2502,-0.2504,0,0,0,0,0,0,0,0,0,0,0,0,0,-0.2105,-0.2107,-0.2227,-0.2228,-0.2229,-0.2323,-0.2325,-0.2326,-0.2399,-0.2399,-0.24,-0.2401,-0.2499,-0.2502,-0.2504,0,0,0,0,0,0,0,0,0,0,0,0,0,-0.2175,-0.2107,-0.2226,-0.2277,-0.2282,-0.2323,-0.2325,-0.2327,-0.2398,-0.2399,-0.24,-0.2401,-0.2498,-0.2501,-0.2504,-0.2503,0,0,-0.2514,-0.2515,0,0,0,0,0,0,0,0,-0.2171,-0.218,-0.2268,-0.2273,-0.2279,-0.235,-0.2318,-0.2386,-0.2398,-0.2354,-0.2401,-0.2402,-0.2449,-0.2456,-0.2472,-0.2508,-0.2512,-0.2514,-0.2516,-0.2517,-0.2518,0,0,0,0,0,0,0,-0.2166,-0.2176,-0.2265,-0.2269,-0.2276,-0.2294,-0.2306,-0.2331,-0.2395,-0.2358,-0.2364,-0.2374,-0.2453,-0.2469,-0.2475,-0.2514,-0.2514,-0.2517,-0.2518,-0.252,-0.2554,-0.2553,0,0,0,0,0,0,-0.2153,-0.2171,-0.2262,-0.2268,-0.2227,-0.2296,-0.2308,-0.2326,-0.2395,-0.2406,-0.2373,-0.2377,-0.2464,-0.2472,-0.2479,-0.2482,-0.2517,-0.252,-0.2522,-0.2555,-0.2554,-0.2553,0,0,0,0,0,0,-0.215,-0.2161,-0.2258,-0.2221,-0.2235,-0.2297,-0.2317,-0.2328,-0.2345,-0.2406,-0.2418,-0.2379,-0.2465,-0.2475,-0.2497,-0.2487,-0.2521,-0.2524,-0.2556,-0.2554,-0.2553,-0.2489,0,0,0,0,0,0,-0.2147,-0.2159,-0.2159,-0.2221,-0.2237,-0.2274,-0.2316,-0.2329,-0.235,-0.2356,-0.2415,-0.2425,-0.2466,-0.2492,-0.25,-0.2492,-0.2526,-0.2557,-0.2555,-0.2553,-0.2492,-0.2485,-0.248,0,0,0,0,0,-0.2142,-0.2137,-0.2159,-0.217,-0.2238,-0.2273,-0.2282,-0.233,-0.2349,-0.2349,-0.2389,-0.2423,-0.2487,-0.2494,-0.2503,-0.2496,-0.2558,-0.2556,-0.2554,-0.2495,-0.2487,-0.248,0,0,0,0,0,0,-0.2073,-0.2146,-0.2171,-0.2186,-0.2223,-0.2285,-0.2288,-0.232,-0.2352,-0.2356,-0.2414,-0.2426,-0.2442,-0.2472,-0.2478,-0.2498,-0.2527,-0.2526,-0.2479,-0.2471,-0.2465,-0.2458,-0.2529,0,0,0,0,0,-0.206,-0.2082,-0.2145,-0.2152,-0.2169,-0.2225,-0.2242,-0.2276,-0.2316,-0.2332,-0.2373,-0.2411,-0.244,-0.2457,-0.2487,-0.2497,-0.2511,-0.2497,-0.249,-0.2485,-0.2484,-0.2491,-0.2486,-0.2546,-0.2546,-0.2546,0,0,-0.2033,-0.2075,-0.2086,-0.214,-0.2172,-0.2194,-0.2238,-0.2259,-0.2276,-0.2335,-0.2359,-0.239,-0.2436,-0.2452,-0.2461,-0.2477,-0.247,-0.2482,-0.2477,-0.2479,-0.2488,-0.2483,-0.2477,-0.2544,-0.2545,-0.2545,0,0,-0.1994,-0.2028,-0.2038,-0.207,-0.2118,-0.2155,-0.2157,-0.2215,-0.2239,-0.2263,-0.2308,-0.2329,-0.2377,-0.2408,-0.243,-0.2403,-0.2436,-0.2411,-0.2378,-0.2385,-0.238,-0.2376,-0.2366,-0.2362,-0.241,-0.241,-0.241,0,-0.1953,-0.1988,-0.2039,-0.2058,-0.208,-0.2135,-0.2145,-0.2173,-0.2229,-0.2243,-0.226,-0.2322,-0.2357,-0.238,-0.2374,-0.239,-0.2394,-0.2404,-0.2377,-0.2373,-0.237,-0.2362,-0.2358,-0.2407,-0.2407,-0.2407,-0.2408,0,-0.1936,-0.1959,-0.1962,-0.2014,-0.2036,-0.2051,-0.2104,-0.2121,-0.2152,-0.2187,-0.2212,-0.2256,-0.2295,-0.2303,-0.2334,-0.2332,-0.234,-0.2366,-0.2395,-0.236,-0.2353,-0.235,-0.2402,-0.2403,-0.2404,-0.2405,0,0,-0.1856,-0.1936,-0.1936,-0.1961,-0.2018,-0.2038,-0.2054,-0.2093,-0.2106,-0.2143,-0.2159,-0.2198,-0.2223,-0.2248,-0.2283,-0.2288,-0.2264,-0.2314,-0.2316,-0.2303,-0.2263,-0.2243,-0.2238,-0.2286,-0.2286,-0.2285,-0.2259,0,-0.1826,-0.1859,-0.1905,-0.1923,-0.1945,-0.1998,-0.2013,-0.205,-0.2083,-0.2107,-0.2145,-0.2171,-0.2202,-0.2217,-0.2225,-0.2265,-0.2257,-0.2268,-0.2301,-0.2302,-0.2287,-0.2235,-0.2213,-0.2187,-0.2257,-0.2257,-0.2256,0,-0.1795,-0.1829,-0.1848,-0.1904,-0.1915,-0.1928,-0.1967,-0.1989,-0.2032,-0.2056,-0.2084,-0.2122,-0.2143,-0.2169,-0.2199,-0.2205,-0.2222,-0.2243,-0.2243,-0.2248,-0.2276,-0.2237,-0.2179,-0.2175,-0.2252,-0.2253,-0.2253,0,-0.1734,-0.1785,-0.1803,-0.1822,-0.1888,-0.1895,-0.1923,-0.1967,-0.1988,-0.2022,-0.2036,-0.2072,-0.2092,-0.2119,-0.2166,-0.2181,-0.219,-0.2221,-0.2211,-0.2209,-0.221,-0.2209,-0.2153,-0.2221,-0.2221,-0.2221,-0.2221,0,-0.1695,-0.1705,-0.1776,-0.1787,-0.18,-0.1854,-0.1865,-0.1898,-0.1937,-0.1955,-0.2003,-0.2019,-0.2081,-0.2104,-0.2141,-0.216,-0.2168,-0.2188,-0.2198,-0.2184,-0.2181,-0.2195,-0.2198,-0.222,-0.222,-0.222,-0.222,0,-0.1629,-0.1678,-0.1701,-0.1761,-0.1777,-0.1783,-0.1835,-0.1848,-0.1885,-0.1908,-0.1916,-0.1973,-0.2004,-0.2053,-0.2098,-0.2123,-0.2135,-0.2151,-0.212,-0.2126,-0.2113,-0.2113,-0.2063,-0.206,-0.2129,-0.2129,-0.2128,0,-0.1601,-0.161,-0.1671,-0.1687,-0.1713,-0.1738,-0.1759,-0.1812,-0.1832,-0.1882,-0.1889,-0.1923,-0.1953,-0.1999,-0.2045,-0.2079,-0.2097,-0.2077,-0.2102,-0.2088,-0.2096,-0.2095,-0.2096,-0.2071,-0.207,-0.2069,-0.2068,0,-0.1546,-0.1569,-0.1598,-0.1634,-0.1658,-0.1689,-0.1723,-0.1733,-0.1794,-0.1814,-0.1845,-0.1869,-0.1915,-0.1948,-0.1989,-0.2018,-0.2053,-0.206,-0.2059,-0.2045,-0.2026,-0.2036,-0.2104,-0.2061,-0.2061,-0.2062,-0.2062,-0.2063,-0.1498,-0.1508,-0.1553,-0.1583,-0.1614,-0.1644,-0.166,-0.1698,-0.1725,-0.1766,-0.1796,-0.1826,-0.1869,-0.1928,-0.1955,-0.1979,-0.1995,-0.1994,-0.1994,-0.1993,-0.1987,-0.2023,-0.1987,-0.1987,-0.1987,-0.1987,-0.1988,0,-0.1445,-0.1477,-0.1504,-0.1549,-0.1573,-0.1604,-0.1643,-0.1661,-0.1686,-0.1723,-0.1752,-0.1788,-0.1821,-0.1869,-0.1905,-0.1915,-0.1932,-0.1923,-0.1922,-0.1928,-0.1971,-0.1968,-0.1908,-0.1908,-0.1908,-0.1908,-0.1908,-0.1908,-0.142,-0.1439,-0.1468,-0.1503,-0.1535,-0.1564,-0.1583,-0.1612,-0.1642,-0.168,-0.1707,-0.1738,-0.178,-0.182,-0.1851,-0.1865,-0.1876,-0.1861,-0.1879,-0.1918,-0.1925,-0.1932,-0.193,-0.1863,-0.1863,-0.1835,-0.1835,-0.1835]},{"header":{"parameterUnit":"m.s-1","parameterCategory":1,"la1":30.2991,"la2":30.254,"lo1":-89.0895,"lo2":-89.0444,"dy":0.0017,"dx":0.0017,"nx":28,"ny":28,"refTime":"2023-10-08T09:00:00:Z","depth":0,"parameterNumber":3,"parameterNumberName":"V-component_of_WINDS"},"data":[0,0,0,0,0,0,0,0,0,0,0,0,0,0,0,0,0,0,0,0,0,0,0,0,0,0,0,0,0,0,0,0,0,0,0,0,0,0,0,0,0,0,0,0,0,0,0,0,0,0,0,0,0,0,0,0,0,0,-2.1614,-2.1614,0,-2.1656,-2.1656,-2.1656,-2.1621,-2.1619,-2.1618,-2.1617,-2.1664,-2.1666,-2.1669,0,0,0,0,0,0,0,0,0,0,0,0,0,-2.1507,-2.1509,-2.1613,-2.1614,-2.1615,-2.1655,-2.1656,-2.1657,-2.1621,-2.1619,-2.1618,-2.1616,-2.1663,-2.1666,-2.1669,0,0,0,0,0,0,0,0,0,0,0,0,0,-2.1552,-2.151,-2.1613,-2.1602,-2.1601,-2.1655,-2.1656,-2.1657,-2.1622,-2.1619,-2.1617,-2.1615,-2.1662,-2.1666,-2.167,-2.1739,0,0,-2.1682,-2.1683,0,0,0,0,0,0,0,0,-2.1549,-2.1556,-2.1603,-2.1603,-2.1602,-2.1631,-2.1636,-2.1684,-2.1622,-2.1614,-2.1617,-2.1614,-2.1655,-2.1659,-2.1672,-2.1741,-2.1743,-2.1682,-2.1684,-2.1686,-2.1687,0,0,0,0,0,0,0,-2.1546,-2.1554,-2.163,-2.1604,-2.1603,-2.1596,-2.16,-2.1645,-2.1647,-2.1615,-2.1612,-2.1617,-2.1654,-2.1668,-2.1673,-2.1744,-2.1682,-2.1685,-2.1688,-2.1689,-2.1873,-2.1875,0,0,0,0,0,0,-2.1544,-2.1551,-2.1629,-2.1631,-2.1569,-2.16,-2.1604,-2.1624,-2.1646,-2.1647,-2.1619,-2.1615,-2.1663,-2.1668,-2.1674,-2.1758,-2.1686,-2.169,-2.1692,-2.187,-2.1873,-2.1876,0,0,0,0,0,0,-2.1541,-2.1551,-2.1627,-2.1591,-2.16,-2.1604,-2.1626,-2.1626,-2.164,-2.1649,-2.165,-2.1633,-2.1661,-2.1669,-2.1723,-2.1759,-2.1692,-2.1695,-2.1867,-2.1871,-2.1875,-2.1924,0,0,0,0,0,0,-2.1538,-2.155,-2.1575,-2.1591,-2.1602,-2.1674,-2.1629,-2.1628,-2.1646,-2.1642,-2.1663,-2.1664,-2.166,-2.1717,-2.1727,-2.1763,-2.1698,-2.1864,-2.1869,-2.1874,-2.1919,-2.1929,-2.1937,0,0,0,0,0,-2.1535,-2.1588,-2.1577,-2.1586,-2.1633,-2.1676,-2.1682,-2.1675,-2.1649,-2.1676,-2.1682,-2.1663,-2.1753,-2.1723,-2.1734,-2.1771,-2.1862,-2.1868,-2.1873,-2.1915,-2.1927,-2.1937,0,0,0,0,0,0,-2.1578,-2.159,-2.1578,-2.1638,-2.1656,-2.167,-2.1702,-2.1688,-2.1715,-2.171,-2.1702,-2.1707,-2.1764,-2.1773,-2.1739,-2.184,-2.1804,-2.1812,-2.1832,-2.1843,-2.1852,-2.1849,-2.1702,0,0,0,0,0,-2.1594,-2.1626,-2.1636,-2.1688,-2.1698,-2.1699,-2.1717,-2.171,-2.1729,-2.1737,-2.1747,-2.1768,-2.1801,-2.1822,-2.1853,-2.192,-2.1925,-2.1952,-2.1961,-2.1968,-2.1976,-2.2013,-2.2025,-2.1894,-2.1894,-2.1894,0,0,-2.1628,-2.1639,-2.166,-2.1697,-2.171,-2.1745,-2.1705,-2.1744,-2.177,-2.1743,-2.1795,-2.1803,-2.1826,-2.1887,-2.1914,-2.1896,-2.2013,-2.1975,-2.1981,-2.1985,-2.202,-2.2033,-2.2044,-2.1898,-2.1898,-2.1897,0,0,-2.1709,-2.172,-2.1764,-2.1778,-2.1799,-2.1799,-2.181,-2.1826,-2.183,-2.1882,-2.1863,-2.1895,-2.1951,-2.1968,-2.1984,-2.2072,-2.2056,-2.2082,-2.213,-2.2167,-2.2177,-2.2186,-2.2218,-2.223,-2.2089,-2.2089,-2.209,0,-2.1749,-2.1799,-2.179,-2.183,-2.1847,-2.1823,-2.187,-2.1884,-2.1914,-2.1927,-2.1906,-2.1977,-2.1991,-2.2056,-2.2078,-2.2091,-2.2105,-2.208,-2.2176,-2.2185,-2.2193,-2.2224,-2.2236,-2.2093,-2.2092,-2.2092,-2.2092,0,-2.1849,-2.1884,-2.1918,-2.1946,-2.1968,-2.2011,-2.2009,-2.2032,-2.2024,-2.2027,-2.208,-2.2096,-2.2129,-2.2144,-2.2137,-2.2209,-2.2198,-2.2177,-2.214,-2.2209,-2.2238,-2.225,-2.2097,-2.2096,-2.2095,-2.2094,0,0,-2.1957,-2.1979,-2.1992,-2.2005,-2.2026,-2.2054,-2.2097,-2.2129,-2.2149,-2.2171,-2.2207,-2.2256,-2.2237,-2.2255,-2.225,-2.2282,-2.2352,-2.2257,-2.2257,-2.2275,-2.2434,-2.245,-2.2464,-2.2341,-2.2343,-2.2345,-2.2432,0,-2.2039,-2.2111,-2.2104,-2.2174,-2.2207,-2.2186,-2.2223,-2.2241,-2.2245,-2.2276,-2.2281,-2.2316,-2.2287,-2.2298,-2.2329,-2.2337,-2.2384,-2.233,-2.2377,-2.2379,-2.2372,-2.2479,-2.2496,-2.2577,-2.2443,-2.2445,-2.2447,0,-2.2144,-2.2168,-2.2241,-2.2257,-2.2271,-2.2304,-2.2334,-2.2362,-2.2383,-2.2384,-2.2405,-2.2394,-2.2439,-2.24,-2.2463,-2.2427,-2.2446,-2.2452,-2.2455,-2.246,-2.2417,-2.2487,-2.2603,-2.2615,-2.2464,-2.2463,-2.2461,0,-2.2216,-2.2267,-2.2318,-2.2329,-2.235,-2.2374,-2.2384,-2.2402,-2.2422,-2.2448,-2.2461,-2.2493,-2.251,-2.2536,-2.2535,-2.2507,-2.2599,-2.256,-2.2602,-2.2602,-2.2623,-2.2622,-2.2744,-2.2634,-2.2634,-2.2633,-2.2633,0,-2.2309,-2.2354,-2.2351,-2.2382,-2.2433,-2.2425,-2.2476,-2.2483,-2.25,-2.2533,-2.2517,-2.2549,-2.2545,-2.2578,-2.2577,-2.263,-2.2638,-2.2641,-2.2641,-2.2643,-2.2643,-2.2656,-2.265,-2.2637,-2.2636,-2.2635,-2.2635,0,-2.2399,-2.2398,-2.2451,-2.2466,-2.2471,-2.2508,-2.2521,-2.2552,-2.2555,-2.2597,-2.2607,-2.2612,-2.265,-2.2651,-2.2695,-2.2695,-2.2759,-2.2752,-2.2752,-2.2751,-2.2793,-2.279,-2.2929,-2.2948,-2.2824,-2.2826,-2.2827,0,-2.2458,-2.2492,-2.2511,-2.2531,-2.2542,-2.2575,-2.2595,-2.259,-2.2612,-2.2638,-2.2666,-2.2701,-2.273,-2.2792,-2.2801,-2.2834,-2.2829,-2.2875,-2.2834,-2.2835,-2.2831,-2.2829,-2.2833,-2.2883,-2.2885,-2.2886,-2.2887,0,-2.2563,-2.2561,-2.259,-2.2619,-2.2643,-2.2667,-2.2688,-2.2706,-2.2703,-2.2729,-2.2766,-2.2788,-2.2833,-2.2869,-2.2902,-2.2914,-2.2901,-2.29,-2.2911,-2.2915,-2.2914,-2.2916,-2.2775,-2.2897,-2.2896,-2.2895,-2.2894,-2.2894,-2.264,-2.267,-2.2688,-2.2721,-2.2736,-2.2757,-2.2786,-2.2792,-2.2823,-2.2858,-2.2853,-2.2896,-2.2917,-2.2959,-2.2974,-2.3009,-2.2993,-2.3009,-2.3014,-2.3018,-2.3023,-2.2907,-2.3014,-2.3014,-2.3014,-2.3014,-2.3013,0,-2.2746,-2.2756,-2.2786,-2.2816,-2.2843,-2.2826,-2.2849,-2.2873,-2.291,-2.293,-2.2958,-2.3003,-2.3038,-2.305,-2.3085,-2.3111,-2.3105,-2.312,-2.3119,-2.3122,-2.3035,-2.3022,-2.3124,-2.3124,-2.3124,-2.3124,-2.3124,-2.3124,-2.2804,-2.2854,-2.2854,-2.2912,-2.2923,-2.2963,-2.2978,-2.2997,-2.3013,-2.3063,-2.3092,-2.3099,-2.3116,-2.3153,-2.3185,-2.3188,-2.3202,-2.322,-2.322,-2.3139,-2.3128,-2.3117,-2.3105,-2.3223,-2.3223,-2.3304,-2.3305,-2.3306]}]]